{"data":{"norad_id":61259,"intl_designator":"2024-175S","name":"STARLINK-32435","alt_names":[],"object_type":"PAYLOAD","status":"ACTIVE","operator":null,"country":"US","launch_date":"2024-09-25","launch_site_code":"AFWTR","launch_vehicle":null,"mission":null,"orbit_class":"UNKNOWN","rcs_meters":null,"size_class":null,"mass_kg":null,"dimensions":null,"purposes":["comms"],"wikipedia_slug":null,"has_3d_model":false,"image_url":null,"decayed_at":null,"tle_current":{"epoch":"2026-05-25T03:40:15.521952Z","epoch_age_seconds":55775,"freshness":"FRESH","line1":"1 61259U 24175S   26145.15295743 -.00000465  00000+0 -26392-5 0  9999","line2":"2 61259  53.1601 198.6565 0000982  63.3963 296.7140 15.34390407 93164","mean_motion":15.34390407,"eccentricity":9.82e-5,"inclination_deg":53.1601,"raan_deg":198.6565,"arg_perigee_deg":63.3963,"mean_anomaly_deg":296.714,"bstar":-2.6392e-6,"rev_number":9316,"period_min":93.848344816979,"perigee_km":462.05997946177,"apogee_km":463.40352608481,"semimajor_km":6840.8687527733,"source":"CELESTRAK","updated_at":"2026-05-25T13:38:19.367155Z"}}}